Time,TemperatureF,DewpointF,PressureIn,WindDirection,WindDirectionDegrees,WindSpeedMPH,WindSpeedGustMPH,Humidity,HourlyPrecipIn,Conditions,Clouds,dailyrainin,SoftwareType,DateUTC
2013-02-23 00:04:00,35.3,34.8,30.17,NE,45,1.0,2.0,98,0.00,,,0.00,VWS V14.01,2013-02-23 05:04:00,
2013-02-23 00:09:00,35.4,34.9,30.17,East,97,1.0,3.0,98,0.00,,,0.00,VWS V14.01,2013-02-23 05:09:00,
2013-02-23 00:14:00,35.3,34.8,30.17,NNE,25,2.0,2.0,98,0.00,,,0.00,VWS V14.01,2013-02-23 05:14:00,
2013-02-23 00:19:00,35.3,34.8,30.16,North,358,0.0,1.0,98,0.00,,,0.00,VWS V14.01,2013-02-23 05:19:00,
2013-02-23 00:24:00,35.3,34.8,30.17,NE,41,0.0,1.0,98,0.00,,,0.00,VWS V14.01,2013-02-23 05:24:00,
2013-02-23 00:29:00,35.3,34.8,30.18,NE,47,0.0,0.0,98,0.00,,,0.00,VWS V14.01,2013-02-23 05:29:00,
2013-02-23 00:34:00,35.3,34.8,30.17,ESE,110,0.0,1.0,98,0.00,,,0.00,VWS V14.01,2013-02-23 05:34:00,
2013-02-23 00:39:00,35.3,34.8,30.17,ENE,58,0.0,1.0,98,0.00,,,0.00,VWS V14.01,2013-02-23 05:39:00,
2013-02-23 00:44:00,35.3,34.8,30.17,ENE,58,0.0,1.0,98,0.00,,,0.00,VWS V14.01,2013-02-23 05:44:00,
2013-02-23 00:49:00,35.3,34.8,30.17,ENE,58,0.0,0.0,98,0.00,,,0.00,VWS V14.01,2013-02-23 05:49:00,
2013-02-23 00:54:00,35.3,34.8,30.17,ENE,58,0.0,0.0,98,0.00,,,0.00,VWS V14.01,2013-02-23 05:54:00,
2013-02-23 00:59:00,35.3,34.8,30.16,NE,49,0.0,1.0,98,0.00,,,0.00,VWS V14.01,2013-02-23 05:59:00,
2013-02-23 01:04:00,35.4,34.9,30.15,NNE,12,1.0,1.0,98,0.00,,,0.00,VWS V14.01,2013-02-23 06:04:00,
2013-02-23 01:09:00,35.3,34.8,30.16,SE,138,1.0,1.0,98,0.00,,,0.00,VWS V14.01,2013-02-23 06:09:00,
2013-02-23 01:14:00,35.3,34.8,30.17,SSE,151,1.0,1.0,98,0.00,,,0.00,VWS V14.01,2013-02-23 06:14:00,
2013-02-23 01:19:00,35.4,34.9,30.15,NE,36,1.0,1.0,98,0.00,,,0.00,VWS V14.01,2013-02-23 06:19:00,
2013-02-23 01:24:00,35.4,34.9,30.16,SE,142,1.0,2.0,98,0.00,,,0.00,VWS V14.01,2013-02-23 06:24:00,
2013-02-23 01:29:00,35.3,34.8,30.16,NNE,30,0.0,0.0,98,0.00,,,0.00,VWS V14.01,2013-02-23 06:29:00,
2013-02-23 01:34:00,35.4,34.9,30.15,North,5,2.0,2.0,98,0.01,,,0.01,VWS V14.01,2013-02-23 06:34:00,
2013-02-23 01:39:00,35.4,34.9,30.14,NNE,13,1.0,1.0,98,0.01,,,0.01,VWS V14.01,2013-02-23 06:39:00,
2013-02-23 01:44:00,35.3,34.8,30.13,North,356,2.0,2.0,98,0.02,,,0.02,VWS V14.01,2013-02-23 06:44:00,
2013-02-23 01:49:00,35.3,34.8,30.13,NNW,340,0.0,0.0,98,0.03,,,0.03,VWS V14.01,2013-02-23 06:49:00,
2013-02-23 01:54:00,35.2,34.7,30.13,NNW,340,0.0,0.0,98,0.03,,,0.03,VWS V14.01,2013-02-23 06:54:00,
2013-02-23 01:59:00,35.2,34.7,30.12,NNE,15,2.0,2.0,98,0.04,,,0.04,VWS V14.01,2013-02-23 06:59:00,
2013-02-23 02:04:00,35.2,34.7,30.11,NE,53,2.0,2.0,98,0.05,,,0.05,VWS V14.01,2013-02-23 07:04:00,
2013-02-23 02:09:00,35.1,34.6,30.09,NNE,18,3.0,3.0,98,0.06,,,0.06,VWS V14.01,2013-02-23 07:09:00,
2013-02-23 02:14:00,35.1,34.6,30.08,North,352,1.0,2.0,98,0.06,,,0.06,VWS V14.01,2013-02-23 07:14:00,
2013-02-23 02:19:00,35.1,34.6,30.08,WNW,283,1.0,2.0,98,0.07,,RA,0.07,VWS V14.01,2013-02-23 07:19:00,
2013-02-23 02:24:00,35.1,34.6,30.08,NNE,27,0.0,2.0,98,0.07,,RA,0.07,VWS V14.01,2013-02-23 07:24:00,
2013-02-23 02:29:00,35.1,34.3,30.09,WNW,296,0.0,2.0,97,0.07,,RA,0.07,VWS V14.01,2013-02-23 07:29:00,
2013-02-23 02:34:00,35.1,34.6,30.10,WNW,297,0.0,0.0,98,0.07,,RA,0.07,VWS V14.01,2013-02-23 07:34:00,
2013-02-23 02:39:00,35.2,34.7,30.09,WNW,296,0.0,0.0,98,0.06,,RA,0.07,VWS V14.01,2013-02-23 07:39:00,
2013-02-23 02:44:00,35.3,34.8,30.09,NNE,20,1.0,1.0,98,0.05,,-RA,0.07,VWS V14.01,2013-02-23 07:44:00,
2013-02-23 02:49:00,35.3,34.8,30.09,NNE,18,0.0,0.0,98,0.05,,-RA,0.07,VWS V14.01,2013-02-23 07:49:00,
2013-02-23 02:54:00,35.3,34.8,30.08,NE,50,1.0,1.0,98,0.04,,-RA,0.07,VWS V14.01,2013-02-23 07:54:00,
2013-02-23 02:59:00,35.2,34.7,30.08,ENE,64,0.0,1.0,98,0.04,,-RA,0.08,VWS V14.01,2013-02-23 07:59:00,
2013-02-23 03:04:00,35.3,34.8,30.09,SW,219,1.0,1.0,98,0.03,,RA,0.08,VWS V14.01,2013-02-23 08:04:00,
2013-02-23 03:09:00,35.3,34.8,30.09,SW,232,0.0,1.0,98,0.03,,RA,0.09,VWS V14.01,2013-02-23 08:09:00,
2013-02-23 03:14:00,35.3,34.8,30.08,WSW,246,0.0,0.0,98,0.04,,RA,0.10,VWS V14.01,2013-02-23 08:14:00,
2013-02-23 03:19:00,35.4,34.9,30.08,WSW,247,0.0,0.0,98,0.03,,RA,0.10,VWS V14.01,2013-02-23 08:19:00,
2013-02-23 03:24:00,35.4,34.9,30.09,South,169,0.0,1.0,98,0.04,,RA,0.11,VWS V14.01,2013-02-23 08:24:00,
2013-02-23 03:29:00,35.3,34.8,30.09,SW,219,0.0,0.0,98,0.04,,RA,0.11,VWS V14.01,2013-02-23 08:29:00,
2013-02-23 03:34:00,35.4,34.9,30.09,SW,221,1.0,1.0,98,0.05,,RA,0.12,VWS V14.01,2013-02-23 08:34:00,
2013-02-23 03:39:00,35.5,35.0,30.09,SSE,155,0.0,0.0,98,0.06,,RA,0.13,VWS V14.01,2013-02-23 08:39:00,
2013-02-23 03:44:00,35.5,35.0,30.09,SSE,158,0.0,1.0,98,0.06,,RA,0.13,VWS V14.01,2013-02-23 08:44:00,
2013-02-23 03:49:00,35.5,35.0,30.09,SW,229,0.0,0.0,98,0.07,,RA,0.14,VWS V14.01,2013-02-23 08:49:00,
2013-02-23 03:54:00,35.5,35.0,30.08,NE,36,0.0,1.0,98,0.07,,RA,0.14,VWS V14.01,2013-02-23 08:54:00,
2013-02-23 03:59:00,35.4,34.9,30.07,NE,35,0.0,0.0,98,0.06,,RA,0.14,VWS V14.01,2013-02-23 08:59:00,
2013-02-23 04:04:00,35.4,34.9,30.06,NE,46,0.0,1.0,98,0.06,,RA,0.14,VWS V14.01,2013-02-23 09:04:00,
2013-02-23 04:09:00,35.4,34.9,30.06,North,354,1.0,1.0,98,0.06,,RA,0.15,VWS V14.01,2013-02-23 09:09:00,
2013-02-23 04:14:00,35.4,34.9,30.06,NE,45,0.0,1.0,98,0.05,,RA,0.15,VWS V14.01,2013-02-23 09:14:00,
2013-02-23 04:19:00,35.4,34.9,30.06,NNE,30,1.0,3.0,98,0.05,,RA,0.15,VWS V14.01,2013-02-23 09:19:00,
2013-02-23 04:24:00,35.4,34.9,30.06,NNE,30,0.0,0.0,98,0.05,,-RA,0.15,VWS V14.01,2013-02-23 09:24:00,
2013-02-23 04:29:00,35.5,35.0,30.07,NNE,30,0.0,0.0,98,0.04,,-RA,0.15,VWS V14.01,2013-02-23 09:29:00,
2013-02-23 04:34:00,35.5,35.0,30.07,NNE,30,0.0,0.0,98,0.04,,-RA,0.16,VWS V14.01,2013-02-23 09:34:00,
2013-02-23 04:39:00,35.5,35.0,30.06,NE,46,2.0,2.0,98,0.04,,-RA,0.16,VWS V14.01,2013-02-23 09:39:00,
2013-02-23 04:44:00,35.5,35.0,30.06,NE,45,2.0,2.0,98,0.03,,-RA,0.16,VWS V14.01,2013-02-23 09:44:00,
2013-02-23 04:49:00,35.5,35.0,30.06,NE,49,1.0,2.0,98,0.03,,-RA,0.16,VWS V14.01,2013-02-23 09:49:00,
2013-02-23 04:54:00,35.4,34.9,30.06,NE,53,1.0,1.0,98,0.02,,-RA,0.16,VWS V14.01,2013-02-23 09:54:00,
2013-02-23 04:59:00,35.4,34.9,30.06,NE,53,0.0,0.0,98,0.02,,-RA,0.16,VWS V14.01,2013-02-23 09:59:00,
2013-02-23 05:04:00,35.5,35.0,30.06,NE,53,0.0,0.0,98,0.03,,,0.17,VWS V14.01,2013-02-23 10:04:00,
2013-02-23 05:09:00,35.5,35.0,30.06,NE,53,0.0,1.0,98,0.02,,,0.17,VWS V14.01,2013-02-23 10:09:00,
2013-02-23 05:14:00,35.5,35.0,30.05,NE,41,2.0,2.0,98,0.02,,,0.17,VWS V14.01,2013-02-23 10:14:00,
2013-02-23 05:19:00,35.5,35.0,30.04,NNE,33,0.0,2.0,98,0.02,,,0.17,VWS V14.01,2013-02-23 10:19:00,
2013-02-23 05:24:00,35.5,35.0,30.05,ESE,105,0.0,1.0,98,0.03,,,0.18,VWS V14.01,2013-02-23 10:24:00,
2013-02-23 05:29:00,35.4,34.9,30.03,ENE,60,2.0,4.0,98,0.03,,,0.18,VWS V14.01,2013-02-23 10:29:00,
2013-02-23 05:34:00,35.4,34.9,30.03,NNE,30,3.0,3.0,98,0.02,,,0.18,VWS V14.01,2013-02-23 10:34:00,
2013-02-23 05:39:00,35.3,34.8,30.03,East,87,0.0,1.0,98,0.02,,,0.18,VWS V14.01,2013-02-23 10:39:00,
2013-02-23 05:44:00,35.3,34.8,30.02,NE,47,0.0,1.0,98,0.02,,,0.18,VWS V14.01,2013-02-23 10:44:00,
2013-02-23 05:49:00,35.3,34.8,30.02,NE,36,2.0,2.0,98,0.02,,,0.18,VWS V14.01,2013-02-23 10:49:00,
2013-02-23 05:54:00,35.3,34.8,30.02,SE,129,1.0,3.0,98,0.02,,,0.18,VWS V14.01,2013-02-23 10:54:00,
2013-02-23 05:59:00,35.3,34.8,30.03,SE,131,0.0,2.0,98,0.02,,,0.18,VWS V14.01,2013-02-23 10:59:00,
2013-02-23 06:04:00,35.3,34.8,30.02,NNE,30,3.0,3.0,98,0.02,,,0.18,VWS V14.01,2013-02-23 11:04:00,
2013-02-23 06:09:00,35.3,34.8,30.03,NE,40,1.0,2.0,98,0.01,,,0.18,VWS V14.01,2013-02-23 11:09:00,
2013-02-23 06:14:00,35.3,34.8,30.03,North,1,0.0,1.0,98,0.01,,,0.18,VWS V14.01,2013-02-23 11:14:00,
2013-02-23 06:19:00,35.3,34.8,30.03,North,360,1.0,2.0,98,0.01,,,0.18,VWS V14.01,2013-02-23 11:19:00,
2013-02-23 06:24:00,35.3,34.5,30.04,NE,36,2.0,2.0,97,0.00,,-RA,0.18,VWS V14.01,2013-02-23 11:24:00,
2013-02-23 06:29:00,35.3,34.8,30.03,NE,47,2.0,3.0,98,0.00,,-RA,0.18,VWS V14.01,2013-02-23 11:29:00,
2013-02-23 06:34:00,35.3,34.5,30.03,NNE,33,1.0,2.0,97,0.00,,-RA,0.18,VWS V14.01,2013-02-23 11:34:00,
2013-02-23 06:39:00,35.3,34.8,30.03,NNE,14,0.0,0.0,98,0.00,,-RA,0.18,VWS V14.01,2013-02-23 11:39:00,
2013-02-23 06:44:00,35.3,34.8,30.03,NE,36,0.0,0.0,98,0.01,,-RA,0.19,VWS V14.01,2013-02-23 11:44:00,
2013-02-23 06:49:00,35.3,34.8,30.03,NNE,12,0.0,0.0,98,0.01,,-RA,0.19,VWS V14.01,2013-02-23 11:49:00,
2013-02-23 06:54:00,35.3,34.8,30.03,NNE,18,0.0,0.0,98,0.01,,-RA,0.19,VWS V14.01,2013-02-23 11:54:00,
2013-02-23 06:59:00,35.3,34.8,30.03,NNE,18,0.0,0.0,98,0.01,,-RA,0.19,VWS V14.01,2013-02-23 11:59:00,
2013-02-23 07:04:00,35.3,34.8,30.04,NNE,18,0.0,0.0,98,0.01,,,0.19,VWS V14.01,2013-02-23 12:04:00,
2013-02-23 07:09:00,35.5,35.0,30.03,NNE,18,0.0,0.0,98,0.02,,,0.20,VWS V14.01,2013-02-23 12:09:00,
2013-02-23 07:14:00,35.5,35.0,30.03,NNE,18,0.0,0.0,98,0.02,,,0.20,VWS V14.01,2013-02-23 12:14:00,
2013-02-23 07:19:00,35.5,35.0,30.03,NNE,18,0.0,0.0,98,0.02,,,0.20,VWS V14.01,2013-02-23 12:19:00,
2013-02-23 07:24:00,35.5,35.0,30.03,NNE,18,0.0,0.0,98,0.02,,,0.20,VWS V14.01,2013-02-23 12:24:00,
2013-02-23 07:29:00,35.6,35.1,30.03,NNE,18,0.0,0.0,98,0.02,,,0.20,VWS V14.01,2013-02-23 12:29:00,
2013-02-23 07:34:00,35.5,35.0,30.02,NNE,18,0.0,0.0,98,0.02,,,0.20,VWS V14.01,2013-02-23 12:34:00,
2013-02-23 07:39:00,35.6,35.1,30.03,NNE,12,0.0,1.0,98,0.02,,,0.20,VWS V14.01,2013-02-23 12:39:00,
2013-02-23 07:44:00,35.6,35.1,30.03,NNW,330,0.0,0.0,98,0.01,,,0.20,VWS V14.01,2013-02-23 12:44:00,
2013-02-23 07:49:00,35.6,35.1,30.03,NNW,330,0.0,0.0,98,0.01,,,0.20,VWS V14.01,2013-02-23 12:49:00,
2013-02-23 07:54:00,35.6,35.1,30.04,NW,319,0.0,1.0,98,0.01,,,0.20,VWS V14.01,2013-02-23 12:54:00,
2013-02-23 07:59:00,35.7,35.2,30.04,WNW,300,0.0,1.0,98,0.02,,,0.21,VWS V14.01,2013-02-23 12:59:00,
2013-02-23 08:04:00,35.8,35.3,30.04,WNW,300,0.0,1.0,98,0.02,,OVC090,0.21,VWS V14.01,2013-02-23 13:04:00,
2013-02-23 08:09:00,35.8,35.3,30.03,WNW,300,0.0,0.0,98,0.01,,OVC090,0.21,VWS V14.01,2013-02-23 13:09:00,
2013-02-23 08:14:00,35.8,35.0,30.04,WNW,298,1.0,2.0,97,0.01,,OVC090,0.21,VWS V14.01,2013-02-23 13:14:00,
2013-02-23 08:19:00,35.7,34.9,30.04,NW,311,2.0,2.0,97,0.01,,OVC090,0.21,VWS V14.01,2013-02-23 13:19:00,
2013-02-23 08:24:00,35.7,34.9,30.04,NW,312,0.0,1.0,97,0.01,,,0.21,VWS V14.01,2013-02-23 13:24:00,
2013-02-23 08:29:00,35.7,34.9,30.04,WNW,297,0.0,0.0,97,0.01,,,0.21,VWS V14.01,2013-02-23 13:29:00,
2013-02-23 08:34:00,35.8,35.0,30.03,NW,307,0.0,0.0,97,0.01,,,0.21,VWS V14.01,2013-02-23 13:34:00,
2013-02-23 08:39:00,35.9,35.1,30.02,East,98,1.0,1.0,97,0.01,,,0.21,VWS V14.01,2013-02-23 13:39:00,
2013-02-23 08:44:00,36.0,35.2,30.00,East,97,2.0,3.0,97,0.01,,,0.21,VWS V14.01,2013-02-23 13:44:00,
2013-02-23 08:49:00,36.1,35.3,30.04,NW,312,2.0,3.0,97,0.01,,,0.21,VWS V14.01,2013-02-23 13:49:00,
2013-02-23 08:54:00,36.0,35.2,30.04,WNW,300,2.0,3.0,97,0.01,,,0.21,VWS V14.01,2013-02-23 13:54:00,
2013-02-23 08:59:00,36.0,35.2,30.04,NW,316,2.0,2.0,97,0.01,,,0.21,VWS V14.01,2013-02-23 13:59:00,
2013-02-23 09:04:00,36.1,35.3,30.04,NW,311,3.0,5.0,97,0.00,,,0.21,VWS V14.01,2013-02-23 14:04:00,
2013-02-23 09:09:00,36.2,35.4,30.03,NW,307,0.0,1.0,97,0.00,,,0.21,VWS V14.01,2013-02-23 14:09:00,
2013-02-23 09:14:00,36.4,35.6,30.03,NW,312,0.0,0.0,97,0.00,,,0.21,VWS V14.01,2013-02-23 14:14:00,
2013-02-23 09:19:00,36.8,36.0,30.03,NW,312,2.0,2.0,97,0.01,,,0.22,VWS V14.01,2013-02-23 14:19:00,
2013-02-23 09:24:00,36.8,35.8,30.03,NW,311,0.0,1.0,96,0.01,,OVC090,0.22,VWS V14.01,2013-02-23 14:24:00,
2013-02-23 09:29:00,37.1,36.1,30.04,NW,323,0.0,1.0,96,0.01,,OVC090,0.22,VWS V14.01,2013-02-23 14:29:00,
2013-02-23 09:34:00,37.1,36.1,30.04,NW,312,4.0,5.0,96,0.01,,OVC090,0.22,VWS V14.01,2013-02-23 14:34:00,
2013-02-23 09:39:00,37.2,36.2,30.05,NW,310,3.0,4.0,96,0.01,,OVC090,0.22,VWS V14.01,2013-02-23 14:39:00,
2013-02-23 09:44:00,37.1,36.1,30.04,WNW,302,0.0,2.0,96,0.01,,OVC012,0.22,VWS V14.01,2013-02-23 14:44:00,
2013-02-23 09:49:00,37.5,36.7,30.04,ENE,58,0.0,1.0,97,0.01,,OVC012,0.22,VWS V14.01,2013-02-23 14:49:00,
2013-02-23 09:54:00,37.8,37.0,30.04,NW,311,0.0,0.0,97,0.01,,OVC012,0.22,VWS V14.01,2013-02-23 14:54:00,
2013-02-23 09:59:00,37.7,36.4,30.04,NW,308,3.0,4.0,95,0.01,,OVC012,0.22,VWS V14.01,2013-02-23 14:59:00,
2013-02-23 10:04:00,37.9,36.9,30.03,NW,321,0.0,1.0,96,0.01,,-RA,0.22,VWS V14.01,2013-02-23 15:04:00,
2013-02-23 10:09:00,38.1,37.1,30.03,NE,55,0.0,1.0,96,0.01,,-RA,0.22,VWS V14.01,2013-02-23 15:09:00,
2013-02-23 10:14:00,38.3,37.3,30.03,NW,315,1.0,1.0,96,0.01,,-RA,0.22,VWS V14.01,2013-02-23 15:14:00,
2013-02-23 10:19:00,38.3,36.7,30.02,WNW,297,0.0,1.0,94,0.00,,-RA,0.22,VWS V14.01,2013-02-23 15:19:00,
2013-02-23 10:24:00,38.6,37.3,30.01,NE,44,0.0,2.0,95,0.00,,-RA,0.22,VWS V14.01,2013-02-23 15:24:00,
2013-02-23 10:29:00,38.7,37.1,30.01,NE,39,0.0,1.0,94,0.00,,-RA,0.22,VWS V14.01,2013-02-23 15:29:00,
2013-02-23 10:34:00,39.1,37.8,30.02,NNW,327,0.0,0.0,95,0.00,,-RA,0.22,VWS V14.01,2013-02-23 15:34:00,
2013-02-23 10:39:00,39.4,38.1,30.01,North,349,1.0,1.0,95,0.00,,-RA,0.22,VWS V14.01,2013-02-23 15:39:00,
2013-02-23 10:44:00,39.7,38.1,30.02,North,352,0.0,1.0,94,0.00,,-RA,0.22,VWS V14.01,2013-02-23 15:44:00,
2013-02-23 10:49:00,40.1,38.5,30.03,NW,322,2.0,3.0,94,0.00,,-RA,0.22,VWS V14.01,2013-02-23 15:49:00,
2013-02-23 10:54:00,40.1,38.2,30.02,NE,36,0.0,1.0,93,0.00,,-RA,0.22,VWS V14.01,2013-02-23 15:54:00,
2013-02-23 10:59:00,40.3,38.4,30.01,NNE,15,0.0,2.0,93,0.00,,-RA,0.22,VWS V14.01,2013-02-23 15:59:00,
2013-02-23 11:04:00,40.4,38.5,30.01,NNW,345,1.0,1.0,93,0.00,,-RA,0.22,VWS V14.01,2013-02-23 16:04:00,
2013-02-23 11:09:00,40.5,38.4,30.01,NW,325,0.0,1.0,92,0.00,,-RA,0.22,VWS V14.01,2013-02-23 16:09:00,
2013-02-23 11:14:00,40.6,38.7,30.01,North,11,2.0,2.0,93,0.00,,-RA,0.22,VWS V14.01,2013-02-23 16:14:00,
2013-02-23 11:19:00,40.7,38.6,30.01,North,349,0.0,1.0,92,0.00,,-RA,0.22,VWS V14.01,2013-02-23 16:19:00,
2013-02-23 11:24:00,40.7,38.8,30.02,NNE,19,3.0,3.0,93,0.00,,OVC012,0.22,VWS V14.01,2013-02-23 16:24:00,
2013-02-23 11:29:00,40.8,38.9,30.02,North,355,1.0,1.0,93,0.00,,OVC012,0.22,VWS V14.01,2013-02-23 16:29:00,
2013-02-23 11:34:00,40.9,39.0,30.02,North,358,1.0,1.0,93,0.00,,OVC012,0.22,VWS V14.01,2013-02-23 16:34:00,
2013-02-23 11:39:00,40.9,39.0,30.01,North,358,1.0,1.0,93,0.00,,OVC012,0.22,VWS V14.01,2013-02-23 16:39:00,
2013-02-23 11:44:00,40.9,39.3,30.01,North,6,1.0,1.0,94,0.00,,OVC012,0.22,VWS V14.01,2013-02-23 16:44:00,
2013-02-23 11:49:00,40.9,39.0,30.00,NE,44,1.0,1.0,93,0.00,,OVC012,0.22,VWS V14.01,2013-02-23 16:49:00,
2013-02-23 11:54:00,40.9,38.8,30.01,NE,44,0.0,1.0,92,0.00,,OVC012,0.22,VWS V14.01,2013-02-23 16:54:00,
2013-02-23 11:59:00,41.2,39.3,30.01,NNW,330,0.0,1.0,93,0.00,,OVC012,0.22,VWS V14.01,2013-02-23 16:59:00,
2013-02-23 12:04:00,41.3,39.2,30.01,NNE,23,1.0,1.0,92,0.00,,OVC008,0.22,VWS V14.01,2013-02-23 17:04:00,
2013-02-23 12:09:00,41.3,39.2,30.01,North,4,1.0,2.0,92,0.00,,OVC008,0.22,VWS V14.01,2013-02-23 17:09:00,
2013-02-23 12:14:00,41.4,39.2,30.01,NE,50,0.0,0.0,92,0.00,,OVC008,0.22,VWS V14.01,2013-02-23 17:14:00,
2013-02-23 12:19:00,41.8,39.7,30.01,NE,50,0.0,1.0,92,0.00,,OVC008,0.22,VWS V14.01,2013-02-23 17:19:00,
2013-02-23 12:24:00,42.2,40.0,30.00,WNW,302,1.0,2.0,92,0.00,,OVC008,0.22,VWS V14.01,2013-02-23 17:24:00,
2013-02-23 12:29:00,42.3,39.9,30.00,NW,316,0.0,2.0,91,0.00,,OVC008,0.22,VWS V14.01,2013-02-23 17:29:00,
2013-02-23 12:34:00,42.3,40.2,30.01,WNW,301,1.0,2.0,92,0.00,,OVC008,0.22,VWS V14.01,2013-02-23 17:34:00,
2013-02-23 12:39:00,42.3,39.6,30.00,NW,318,1.0,2.0,90,0.00,,OVC008,0.22,VWS V14.01,2013-02-23 17:39:00,
2013-02-23 12:44:00,42.5,40.1,30.00,NW,319,0.0,1.0,91,0.00,,OVC008,0.22,VWS V14.01,2013-02-23 17:44:00,
2013-02-23 12:49:00,42.9,40.2,29.99,NNE,22,0.0,1.0,90,0.00,,OVC008,0.22,VWS V14.01,2013-02-23 17:49:00,
2013-02-23 12:54:00,43.5,40.8,29.98,North,7,2.0,3.0,90,0.00,,OVC008,0.22,VWS V14.01,2013-02-23 17:54:00,
2013-02-23 12:59:00,43.4,40.7,29.98,NE,53,0.0,1.0,90,0.00,,OVC008,0.22,VWS V14.01,2013-02-23 17:59:00,
2013-02-23 13:04:00,43.9,41.2,29.98,NE,50,0.0,1.0,90,0.00,,OVC018,0.22,VWS V14.01,2013-02-23 18:04:00,
2013-02-23 13:09:00,44.1,40.5,29.97,NW,313,0.0,1.0,87,0.00,,OVC018,0.22,VWS V14.01,2013-02-23 18:09:00,
2013-02-23 13:14:00,44.4,41.1,29.97,NNE,30,1.0,1.0,88,0.00,,OVC018,0.22,VWS V14.01,2013-02-23 18:14:00,
2013-02-23 13:19:00,44.5,41.2,29.96,ENE,77,0.0,1.0,88,0.00,,OVC018,0.22,VWS V14.01,2013-02-23 18:19:00,
2013-02-23 13:24:00,44.1,40.8,29.96,NE,39,1.0,3.0,88,0.00,,OVC018,0.22,VWS V14.01,2013-02-23 18:24:00,
2013-02-23 13:29:00,44.2,41.2,29.96,South,169,0.0,0.0,89,0.00,,OVC018,0.22,VWS V14.01,2013-02-23 18:29:00,
2013-02-23 13:34:00,44.5,41.2,29.96,WNW,302,1.0,3.0,88,0.00,,OVC018,0.22,VWS V14.01,2013-02-23 18:34:00,
2013-02-23 13:39:00,45.0,41.7,29.97,NW,325,0.0,1.0,88,0.00,,OVC018,0.22,VWS V14.01,2013-02-23 18:39:00,
2013-02-23 13:44:00,45.4,41.8,29.96,NNW,327,0.0,0.0,87,0.00,,OVC085,0.22,VWS V14.01,2013-02-23 18:44:00,
2013-02-23 13:49:00,45.4,41.5,29.96,NW,305,0.0,1.0,86,0.00,,OVC085,0.22,VWS V14.01,2013-02-23 18:49:00,
2013-02-23 13:54:00,45.3,41.4,29.95,NE,36,3.0,3.0,86,0.00,,OVC085,0.22,VWS V14.01,2013-02-23 18:54:00,
2013-02-23 13:59:00,45.2,41.3,29.96,NW,318,1.0,2.0,86,0.00,,OVC085,0.22,VWS V14.01,2013-02-23 18:59:00,
2013-02-23 14:04:00,45.4,41.2,29.95,NW,316,0.0,0.0,85,0.00,,OVC085,0.22,VWS V14.01,2013-02-23 19:04:00,
2013-02-23 14:09:00,45.8,41.9,29.95,NW,318,1.0,2.0,86,0.00,,OVC085,0.22,VWS V14.01,2013-02-23 19:09:00,
2013-02-23 14:14:00,45.9,41.7,29.95,North,354,0.0,0.0,85,0.00,,OVC085,0.22,VWS V14.01,2013-02-23 19:14:00,
2013-02-23 14:19:00,46.3,42.3,29.95,North,355,1.0,1.0,86,0.00,,OVC085,0.22,VWS V14.01,2013-02-23 19:19:00,
2013-02-23 14:24:00,46.4,42.1,29.95,NW,312,1.0,2.0,85,0.00,,OVC085,0.22,VWS V14.01,2013-02-23 19:24:00,
2013-02-23 14:29:00,46.4,42.1,29.95,NNE,22,1.0,2.0,85,0.00,,OVC085,0.22,VWS V14.01,2013-02-23 19:29:00,
2013-02-23 14:34:00,46.4,41.8,29.94,NNE,25,1.0,1.0,84,0.00,,OVC085,0.22,VWS V14.01,2013-02-23 19:34:00,
2013-02-23 14:39:00,46.9,42.6,29.95,WNW,288,0.0,1.0,85,0.00,,OVC085,0.22,VWS V14.01,2013-02-23 19:39:00,
2013-02-23 14:44:00,47.2,42.3,29.94,NNW,330,0.0,1.0,83,0.00,,OVC085,0.22,VWS V14.01,2013-02-23 19:44:00,
2013-02-23 14:49:00,47.7,43.4,29.94,NW,321,0.0,1.0,85,0.00,,OVC085,0.22,VWS V14.01,2013-02-23 19:49:00,
2013-02-23 14:54:00,47.6,42.4,29.94,NW,319,0.0,0.0,82,0.00,,OVC085,0.22,VWS V14.01,2013-02-23 19:54:00,
2013-02-23 14:59:00,47.9,43.0,29.94,ENE,58,1.0,2.0,83,0.00,,OVC085,0.22,VWS V14.01,2013-02-23 19:59:00,
2013-02-23 15:04:00,47.8,42.9,29.94,NNE,30,2.0,2.0,83,0.00,,BKN085,0.22,VWS V14.01,2013-02-23 20:04:00,
2013-02-23 15:09:00,47.6,42.7,29.94,SSE,152,0.0,1.0,83,0.00,,BKN085,0.22,VWS V14.01,2013-02-23 20:09:00,
2013-02-23 15:14:00,48.3,43.7,29.94,WNW,287,1.0,1.0,84,0.00,,BKN085,0.22,VWS V14.01,2013-02-23 20:14:00,
2013-02-23 15:19:00,48.7,43.5,29.94,NE,39,3.0,3.0,82,0.00,,BKN085,0.22,VWS V14.01,2013-02-23 20:19:00,
2013-02-23 15:24:00,48.1,42.9,29.93,SE,134,0.0,1.0,82,0.00,,SCT095,0.22,VWS V14.01,2013-02-23 20:24:00,
2013-02-23 15:29:00,48.0,43.1,29.92,East,98,0.0,1.0,83,0.00,,SCT095,0.22,VWS V14.01,2013-02-23 20:29:00,
2013-02-23 15:34:00,47.9,43.0,29.93,NE,41,0.0,0.0,83,0.00,,SCT095,0.22,VWS V14.01,2013-02-23 20:34:00,
2013-02-23 15:39:00,48.1,42.9,29.93,SW,221,0.0,2.0,82,0.00,,SCT095,0.22,VWS V14.01,2013-02-23 20:39:00,
2013-02-23 15:44:00,48.5,43.3,29.93,SW,222,0.0,0.0,82,0.00,,SCT095,0.22,VWS V14.01,2013-02-23 20:44:00,
2013-02-23 15:49:00,48.7,43.5,29.93,SW,224,1.0,1.0,82,0.00,,SCT095,0.22,VWS V14.01,2013-02-23 20:49:00,
2013-02-23 15:54:00,48.6,43.4,29.93,ESE,105,0.0,0.0,82,0.00,,SCT095,0.22,VWS V14.01,2013-02-23 20:54:00,
2013-02-23 15:59:00,48.6,43.4,29.93,ESE,103,0.0,0.0,82,0.00,,BKN085,0.22,VWS V14.01,2013-02-23 20:59:00,
2013-02-23 16:04:00,48.7,43.1,29.93,SE,129,0.0,1.0,81,0.00,,BKN085,0.22,VWS V14.01,2013-02-23 21:04:00,
2013-02-23 16:09:00,48.8,43.2,29.93,SE,134,0.0,0.0,81,0.00,,BKN085,0.22,VWS V14.01,2013-02-23 21:09:00,
2013-02-23 16:14:00,49.0,43.8,29.93,SE,134,0.0,0.0,82,0.00,,BKN085,0.22,VWS V14.01,2013-02-23 21:14:00,
2013-02-23 16:19:00,49.1,43.8,29.92,SE,134,0.0,0.0,82,0.00,,OVC060,0.22,VWS V14.01,2013-02-23 21:19:00,
2013-02-23 16:24:00,49.1,43.8,29.92,NW,307,0.0,1.0,82,0.00,,OVC060,0.22,VWS V14.01,2013-02-23 21:24:00,
2013-02-23 16:29:00,49.0,43.4,29.92,South,177,0.0,0.0,81,0.00,,OVC060,0.22,VWS V14.01,2013-02-23 21:29:00,
2013-02-23 16:34:00,49.1,43.5,29.92,South,177,0.0,0.0,81,0.00,,OVC060,0.22,VWS V14.01,2013-02-23 21:34:00,
2013-02-23 16:39:00,48.9,43.3,29.92,NW,324,0.0,0.0,81,0.00,,OVC060,0.22,VWS V14.01,2013-02-23 21:39:00,
2013-02-23 16:45:00,48.6,43.4,29.91,NW,324,0.0,0.0,82,0.00,,OVC060,0.22,VWS V14.01,2013-02-23 21:45:00,
2013-02-23 16:50:00,48.5,43.6,29.91,NW,325,0.0,0.0,83,0.00,,OVC060,0.22,VWS V14.01,2013-02-23 21:50:00,
2013-02-23 16:55:00,48.5,43.9,29.91,NW,324,0.0,0.0,84,0.00,,OVC060,0.22,VWS V14.01,2013-02-23 21:55:00,
2013-02-23 17:00:00,48.4,43.5,29.91,NW,325,0.0,0.0,83,0.00,,OVC060,0.22,VWS V14.01,2013-02-23 22:00:00,
2013-02-23 17:05:00,48.3,43.4,29.91,NW,325,0.0,0.0,83,0.00,,OVC018,0.22,VWS V14.01,2013-02-23 22:05:00,
2013-02-23 17:10:00,48.3,43.7,29.91,NW,325,0.0,0.0,84,0.00,,OVC018,0.22,VWS V14.01,2013-02-23 22:10:00,
2013-02-23 17:15:00,48.4,43.8,29.91,NW,325,0.0,0.0,84,0.00,,OVC018,0.22,VWS V14.01,2013-02-23 22:15:00,
2013-02-23 19:30:00,44.8,43.2,29.88,SSE,158,0.0,0.0,94,0.00,,OVC018,0.22,VWS V14.01,2013-02-24 00:30:00,
2013-02-23 19:35:00,44.6,43.0,29.89,SSW,207,0.0,0.0,94,0.00,,BKN047,0.22,VWS V14.01,2013-02-24 00:35:00,
2013-02-23 19:40:00,44.5,42.9,29.89,SSW,206,0.0,0.0,94,0.00,,BKN047,0.22,VWS V14.01,2013-02-24 00:40:00,
2013-02-23 19:45:00,44.3,42.7,29.88,SSE,162,1.0,1.0,94,0.00,,BKN016,0.22,VWS V14.01,2013-02-24 00:45:00,
2013-02-23 19:50:00,44.0,42.7,29.88,SSE,153,2.0,2.0,95,0.00,,BKN016,0.22,VWS V14.01,2013-02-24 00:50:00,
2013-02-23 19:55:00,43.8,42.5,29.88,SSE,156,1.0,1.0,95,0.00,,BKN016,0.22,VWS V14.01,2013-02-24 00:55:00,
2013-02-23 20:00:00,43.7,42.6,29.88,SSE,157,0.0,0.0,96,0.00,,SCT016,0.22,VWS V14.01,2013-02-24 01:00:00,
2013-02-23 20:05:00,43.7,42.6,29.88,SSE,156,0.0,0.0,96,0.00,,SCT016,0.22,VWS V14.01,2013-02-24 01:05:00,
2013-02-23 20:10:00,43.6,42.5,29.88,SSE,157,0.0,0.0,96,0.00,,SCT016,0.22,VWS V14.01,2013-02-24 01:10:00,
2013-02-23 20:15:00,43.7,42.6,29.89,WNW,300,0.0,0.0,96,0.00,,SCT016,0.22,VWS V14.01,2013-02-24 01:15:00,
2013-02-23 20:20:00,43.7,42.6,29.88,WNW,300,0.0,0.0,96,0.00,,SCT016,0.22,VWS V14.01,2013-02-24 01:20:00,
2013-02-23 20:25:00,43.7,42.6,29.88,SSE,148,2.0,3.0,96,0.00,,SCT060,0.22,VWS V14.01,2013-02-24 01:25:00,
2013-02-23 20:30:00,43.5,42.4,29.88,SSE,150,0.0,0.0,96,0.00,,SCT060,0.22,VWS V14.01,2013-02-24 01:30:00,
2013-02-23 20:35:00,43.6,42.5,29.88,SSE,151,0.0,0.0,96,0.00,,SCT060,0.22,VWS V14.01,2013-02-24 01:35:00,
2013-02-23 20:40:00,43.6,42.5,29.87,SSE,151,0.0,0.0,96,0.00,,CLR,0.22,VWS V14.01,2013-02-24 01:40:00,
2013-02-23 20:45:00,43.5,42.4,29.87,SSE,150,0.0,0.0,96,0.00,,CLR,0.22,VWS V14.01,2013-02-24 01:45:00,
2013-02-23 20:50:00,43.5,42.4,29.87,WNW,290,1.0,1.0,96,0.00,,CLR,0.22,VWS V14.01,2013-02-24 01:50:00,
2013-02-23 20:55:00,43.5,42.4,29.88,WNW,289,0.0,0.0,96,0.00,,CLR,0.22,VWS V14.01,2013-02-24 01:55:00,
2013-02-23 21:00:00,43.4,42.3,29.88,ESE,113,0.0,0.0,96,0.00,,CLR,0.22,VWS V14.01,2013-02-24 02:00:00,
2013-02-23 21:05:00,43.2,42.1,29.88,ESE,113,0.0,0.0,96,0.00,,CLR,0.22,VWS V14.01,2013-02-24 02:05:00,
2013-02-23 21:10:00,43.1,42.0,29.89,NW,305,2.0,2.0,96,0.00,,CLR,0.22,VWS V14.01,2013-02-24 02:10:00,
2013-02-23 21:15:00,43.0,41.9,29.89,NW,308,0.0,0.0,96,0.00,,CLR,0.22,VWS V14.01,2013-02-24 02:15:00,
2013-02-23 21:20:00,42.8,41.7,29.89,NW,308,0.0,0.0,96,0.00,,SCT042,0.22,VWS V14.01,2013-02-24 02:20:00,
2013-02-23 21:25:00,42.8,41.7,29.89,NW,308,0.0,0.0,96,0.00,,SCT042,0.22,VWS V14.01,2013-02-24 02:25:00,
2013-02-23 21:30:00,42.8,42.0,29.89,NW,309,0.0,0.0,97,0.00,,SCT042,0.22,VWS V14.01,2013-02-24 02:30:00,
2013-02-23 21:35:00,42.9,42.1,29.90,NW,309,0.0,0.0,97,0.00,,SCT042,0.22,VWS V14.01,2013-02-24 02:35:00,
2013-02-23 21:40:00,42.7,41.6,29.88,NE,36,0.0,1.0,96,0.00,,OVC040,0.22,VWS V14.01,2013-02-24 02:40:00,
2013-02-23 21:45:00,42.5,41.4,29.89,NE,36,0.0,0.0,96,0.00,,OVC040,0.22,VWS V14.01,2013-02-24 02:45:00,
2013-02-23 21:50:00,42.4,41.6,29.89,NE,36,0.0,0.0,97,0.00,,OVC040,0.22,VWS V14.01,2013-02-24 02:50:00,
2013-02-23 21:55:00,42.5,41.7,29.89,NE,36,0.0,0.0,97,0.00,,OVC040,0.22,VWS V14.01,2013-02-24 02:55:00,
2013-02-23 22:00:00,42.4,41.6,29.89,NE,35,0.0,0.0,97,0.00,,OVC040,0.22,VWS V14.01,2013-02-24 03:00:00,
2013-02-23 22:05:00,42.4,41.6,29.88,NE,35,0.0,0.0,97,0.00,,OVC013,0.22,VWS V14.01,2013-02-24 03:05:00,
2013-02-23 22:10:00,42.5,41.7,29.88,NE,36,1.0,1.0,97,0.00,,OVC013,0.22,VWS V14.01,2013-02-24 03:10:00,
2013-02-23 22:15:00,42.4,41.6,29.88,NW,321,0.0,0.0,97,0.00,,OVC013,0.22,VWS V14.01,2013-02-24 03:15:00,
2013-02-23 22:20:00,42.4,41.6,29.88,NW,322,0.0,0.0,97,0.00,,OVC011,0.22,VWS V14.01,2013-02-24 03:20:00,
2013-02-23 22:25:00,42.3,41.5,29.88,NW,321,0.0,0.0,97,0.00,,OVC011,0.22,VWS V14.01,2013-02-24 03:25:00,
2013-02-23 22:30:00,42.2,41.4,29.88,NW,321,0.0,0.0,97,0.00,,OVC011,0.22,VWS V14.01,2013-02-24 03:30:00,
2013-02-23 22:35:00,42.2,41.4,29.88,NW,322,0.0,0.0,97,0.00,,OVC011,0.22,VWS V14.01,2013-02-24 03:35:00,
2013-02-23 22:40:00,42.2,41.4,29.88,NW,322,0.0,0.0,97,0.00,,OVC011,0.22,VWS V14.01,2013-02-24 03:40:00,
2013-02-23 22:45:00,42.2,41.4,29.87,NW,322,0.0,0.0,97,0.00,,OVC011,0.22,VWS V14.01,2013-02-24 03:45:00,
2013-02-23 22:50:00,42.1,41.3,29.86,NNW,333,0.0,0.0,97,0.00,,OVC011,0.22,VWS V14.01,2013-02-24 03:50:00,
2013-02-23 22:55:00,42.0,41.2,29.86,NNW,333,0.0,0.0,97,0.00,,OVC011,0.22,VWS V14.01,2013-02-24 03:55:00,
2013-02-23 23:00:00,41.9,41.1,29.87,NNW,333,0.0,0.0,97,0.00,,OVC011,0.22,VWS V14.01,2013-02-24 04:00:00,
2013-02-23 23:05:00,41.9,41.1,29.87,NNW,333,0.0,0.0,97,0.00,,OVC011,0.22,VWS V14.01,2013-02-24 04:05:00,
2013-02-23 23:10:00,42.0,41.5,29.87,NNW,333,0.0,0.0,98,0.00,,OVC011,0.22,VWS V14.01,2013-02-24 04:10:00,
2013-02-23 23:15:00,42.0,41.2,29.87,NNW,333,0.0,0.0,97,0.00,,OVC011,0.22,VWS V14.01,2013-02-24 04:15:00,
2013-02-23 23:20:00,41.9,41.1,29.87,NNW,333,0.0,0.0,97,0.00,,BKN009,0.22,VWS V14.01,2013-02-24 04:20:00,
2013-02-23 23:25:00,41.6,40.8,29.87,NNW,333,0.0,0.0,97,0.00,,BKN009,0.22,VWS V14.01,2013-02-24 04:25:00,
2013-02-23 23:30:00,41.4,40.6,29.88,NNW,333,0.0,0.0,97,0.00,,BKN009,0.22,VWS V14.01,2013-02-24 04:30:00,
2013-02-23 23:35:00,41.2,40.4,29.88,NNW,333,0.0,0.0,97,0.00,,BKN009,0.22,VWS V14.01,2013-02-24 04:35:00,
2013-02-23 23:40:00,40.9,40.1,29.87,NNW,333,0.0,0.0,97,0.00,,,0.22,VWS V14.01,2013-02-24 04:40:00,
2013-02-23 23:45:00,40.6,39.8,29.87,NNW,333,0.0,0.0,97,0.00,,,0.22,VWS V14.01,2013-02-24 04:45:00,
2013-02-23 23:50:00,40.3,39.5,29.88,NNW,333,0.0,0.0,97,0.00,,,0.22,VWS V14.01,2013-02-24 04:50:00,
2013-02-23 23:55:00,40.1,39.3,29.88,NNW,333,0.0,0.0,97,0.00,,,0.22,VWS V14.01,2013-02-24 04:55:00,